Regional Weather Roundup
Issued by NWS

Home | Current Version | Previous Version | Graphics & Text | Print | Product List | Glossary On
Versions: 1 2 3 4 5 6 7 8 9 10 11 12 13 14 15 16 17 18 19 20 21 22 23 24 25 26 27 28 29 30 31 32 33 34 35 36 37 38 39 40 41 42 43 44 45 46 47 48 49 50
000
ASUS45 KABQ 230101
RWRNM
WEATHER ROUNDUP FOR NEW MEXICO
NATIONAL WEATHER SERVICE ALBUQUERQUE NM
700 PM MDT WED OCT 22 2014

NOTE: "FAIR" MEANS FEW OR NO CLOUDS BELOW 12,000 FEET AGL WITH NO
       SIGNIFICANT WEATHER OR OBSTRUCTIONS TO VISION.

      THIS PRODUCT IS RELEASED AS TWO VERSIONS.  ONE VERSION NEAR
      THE TOP OF THE HOUR CONTAINING PRELIMINARY DATA FROM ALBUQUERQUE
      AND OTHER STATIONS.  A FINAL VERSION WITH ADDITIONAL DATA IS
      ISSUED ABOUT 10 MINUTES AFTER THE HOUR.

NMZ501-503-504-510>518-230200-
NORTHWEST PLATEAU/NORTHCENTRAL MOUNTAINS

CITY           SKY/WX    TMP DP  RH WIND       PRES   REMARKS
FARMINGTON     CLEAR     62  35  36 NW6       30.15R
LOS ALAMOS     PTCLDY    61  39  44 CALM      30.24R
SANTA FE       CLEAR     56  39  53 N7        30.17R
TAOS           PTCLDY    54  28  37 NW6       30.23R
ANGEL FIRE     FAIR      44  33  66 W6        30.28S

$$
NMZ402-403-502-505>509-230200-
WESTCENTRAL MOUNTAINS/SOUTHWEST MOUNTAINS

CITY           SKY/WX    TMP DP  RH WIND       PRES   REMARKS
GALLUP         CLEAR     60  37  42 SW6       30.21R
SILVER CITY    CLEAR     64  48  55 S7        30.19R

$$
NMZ407-409-411-412-230200-
SOUTHERN DESERTS

CITY           SKY/WX    TMP DP  RH WIND       PRES   REMARKS
LORDSBURG      FAIR      66  48  52 MISG      30.10S
DEMING         PTCLDY    68  50  52 SW3       30.11R
LAS CRUCES     PTCLDY    66  53  62 SE3       30.12S
HOLLOMAN AFB   PTCLDY    68  53  60 SE5       30.09R
T OR C         PTCLDY    68  48  48 S5        30.11S

$$
NMZ519>523-230200-
CENTRAL VALLEYS/CENTRAL HIGHLANDS

CITY           SKY/WX    TMP DP  RH WIND       PRES   REMARKS
ALBUQUERQUE    PTCLDY    70  38  31 CALM      30.14R
DOUBLE EAGLE   PTCLDY    64  39  39 CALM      30.17R
MORIARTY ARPT  FAIR      57  40  52 W8        30.19S
CLINES CORNERS CLEAR     54  32  43 NW12      30.21R
BELEN          NOT AVBL
SOCORRO        FAIR      65  49  56 S5        30.12S

$$
NMZ524>526-539-540-230200-
SOUTHCENTRAL MOUNTAINS

CITY           SKY/WX    TMP DP  RH WIND       PRES   REMARKS
RUIDOSO        PTCLDY    57  43  58 SW5       30.24S

$$
NMZ527>531-230200-
NORTHEAST HIGHLANDS/NORTHEAST PLAINS

CITY           SKY/WX    TMP DP  RH WIND       PRES   REMARKS
LAS VEGAS      PTCLDY    55  34  45 NW9       30.19R
RATON          CLOUDY    62  37  39 NE8       30.15R
CLAYTON        CLEAR     60  41  49 CALM      30.10R

$$
NMZ532>537-230200-
EASTCENTRAL PLAINS

CITY           SKY/WX    TMP DP  RH WIND       PRES   REMARKS
TUCUMCARI      PTCLDY    66  56  70 S8        30.04S
CANNON AFB     PTCLDY    66  51  59 S13       30.09R
CLOVIS AIRPORT PTCLDY    63  48  59 SE9       30.11R

$$
NMZ028-029-538-230200-
SOUTHEAST PLAINS

CITY           SKY/WX    TMP DP  RH WIND       PRES   REMARKS
ROSWELL        CLEAR     66  58  75 S7        30.07R
CARLSBAD       CLEAR     66  60  81 S7        30.07R
HOBBS          PTCLDY    64  63  94 SE7       30.12R


$$



USA.gov is the U.S. government's official web portal to all federal, state and local government web resources and services.